Location: Dunedin
(45.8670°S, 170.5000°E)
Time: 18:46:09
(UTC+13:00)

Cosmos 1707 Rocket - Pass Details

Date: 24 January 2019
Orbit: 604 x 632 km, 82.5° (Epoch: 16 February)

Event Time Altitude Azimuth Distance (km) Brightness Sun altitude
Exits shadow 22:55:33 22° 34° (NE) 1,342 4.7 -13.9°
Maximum altitude 22:57:48 39° 88° (E) 936 4.1 -14.1°
Drops below altitude 10° 23:01:53 10° 156° (SSE) 1,995 6.5 -14.6°
Sets 23:04:14 0° 164° (SSE) 2,911 7.5 -14.9°
